Wind_Speed
31 31 31 31 30 30 30 28 28 25 24 23 23 23 22 20 18 17 16 16 16 15 15 15 15 15 15 14 14 14 14 15 16 17 17 17 17 17 18 18 18 17 17 17
32 31 31 31 31 30 30 29 27 26 24 23 24 23 22 21 20 19 18 17 16 15 15 16 16 15 15 15 15 15 15 16 17 17 17 17 17 17 18 18 18 18 18 17
32 31 32 33 31 31 30 29 28 26 24 24 24 24 23 22 21 20 19 17 15 16 17 17 16 16 15 15 15 16 15 16 16 16 16 16 16 16 17 17 16 16 17 17
32 32 34 32 31 31 30 29 28 26 24 24 24 24 23 22 21 20 18 17 17 17 18 18 16 15 15 15 15 15 15 16 16 16 16 16 16 16 16 17 16 16 16 16
33 33 33 32 31 30 30 29 27 26 25 24 24 24 24 23 22 20 19 18 17 17 17 16 15 15 15 16 16 15 15 16 16 17 16 16 16 15 15 15 15 15 15 15
33 34 34 32 31 30 29 28 26 25 24 23 23 23 22 23 22 21 20 18 18 17 15 15 15 15 15 15 15 16 17 17 17 16 16 16 15 14 14 15 15 14 15 15
34 34 33 32 31 30 30 27 25 25 24 23 22 22 21 22 22 21 19 19 18 17 16 16 16 16 16 16 16 16 17 17 17 16 16 15 14 13 14 14 14 14 13 13
33 33 32 31 30 30 29 27 26 25 25 24 23 23 23 22 21 21 20 19 18 18 18 18 17 17 16 16 17 17 17 17 17 16 15 14 13 14 14 14 14 14 14 14
33 32 31 29 29 28 28 28 26 26 26 25 25 24 23 22 21 21 21 21 20 19 18 18 18 17 17 17 17 17 17 17 17 15 14 14 14 14 15 15 15 15 15 15
32 32 31 30 29 28 27 28 27 26 25 25 25 24 24 23 22 21 21 21 20 20 19 19 19 18 18 18 17 17 16 16 16 15 15 14 14 15 15 15 15 15 15 16
32 31 30 29 29 28 28 28 28 27 26 26 26 24 24 23 22 21 21 20 20 20 21 20 20 19 18 18 17 17 16 16 16 16 16 16 16 16 16 16 16 16 16 17
32 31 31 30 29 28 29 28 28 27 27 27 26 25 24 23 23 22 22 21 21 20 21 21 20 19 18 18 17 17 17 16 16 16 16 16 16 16 16 16 17 17 17 18
32 32 32 32 30 29 28 27 27 28 27 27 26 26 25 24 23 23 22 22 21 20 20 20 19 18 18 18 17 17 17 17 17 16 16 17 17 17 17 18 18 19 19 19
31 31 31 31 31 30 29 28 28 28 28 27 27 26 26 24 23 22 22 22 21 21 20 20 20 19 19 19 18 18 18 17 17 17 17 18 18 18 19 19 20 20 20 21
31 31 31 30 30 30 29 28 28 29 29 29 28 28 27 25 24 23 23 22 22 22 22 21 21 21 20 20 19 19 19 18 18 18 18 19 19 20 20 21 21 21 21 21
31 30 30 30 30 30 30 29 29 29 29 28 28 27 27 26 24 23 23 22 21 22 22 22 22 22 21 21 20 20 20 20 19 19 19 20 21 21 21 22 22 21 21 22
32 31 30 30 30 30 30 30 30 29 29 28 28 27 26 25 25 24 23 23 22 22 22 23 23 22 21 21 21 21 21 21 21 21 22 22 23 23 22 22 22 22 22 23
31 31 31 31 30 29 29 29 30 31 29 29 28 27 26 25 24 24 24 23 23 22 22 23 23 23 22 22 22 22 22 22 23 23 23 24 24 23 23 23 23 24 24 24
30 30 30 30 30 30 29 28 28 28 27 28 28 27 25 24 25 24 24 23 23 22 22 22 22 22 22 22 22 23 23 23 24 24 23 23 23 23 23 23 24 24 25 26
29 28 28 29 29 29 28 27 27 26 26 26 26 25 24 23 24 23 23 23 22 22 22 21 21 21 21 22 22 23 23 23 23 23 22 23 23 23 24 25 25 25 26 26
27 28 28 28 28 27 26 25 24 24 24 24 24 23 22 21 21 21 21 21 20 21 21 21 21 21 22 22 22 22 22 23 23 23 23 24 24 24 25 25 26 26 27 27
26 27 28 27 27 26 25 24 24 23 22 21 22 22 21 21 21 21 20 20 21 21 21 21 21 21 22 22 22 22 22 23 23 23 23 24 24 25 25 26 27 27 27 27
25 25 26 26 25 25 25 24 23 23 22 21 21 21 21 21 21 20 20 20 21 21 21 21 21 21 21 21 22 22 22 22 23 23 24 25 25 25 26 27 27 28 28 28
24 25 25 24 24 24 25 24 24 24 23 23 22 22 21 21 21 21 20 20 21 21 21 21 21 21 22 22 23 23 22 23 24 25 25 26 26 26 26 27 28 28 28 29
24 24 24 24 24 24 24 24 24 24 24 23 23 23 22 22 21 21 21 21 21 21 21 21 21 22 22 23 24 23 24 24 24 25 25 26 25 25 26 27 27 28 29 29
23 23 24 24 24 24 24 23 23 24 24 23 23 22 22 21 21 21 21 20 20 21 21 22 22 22 23 23 23 24 24 24 25 25 25 24 25 26 27 28 28 28 28 29
21 22 23 23 23 22 22 21 21 22 22 22 22 22 21 21 21 21 21 21 21 21 22 22 22 22 23 23 24 24 25 25 25 25 25 25 26 26 27 27 27 28 28 29
Wind_Direction
222 224 228 231 232 234 237 240 243 244 243 240 243 245 246 249 255 263 271 277 282 287 293 293 294 294 293 293 294 292 292 293 293 294 294 290 289 288 288 288 288 287 289 292
223 224 227 230 232 234 237 239 241 242 241 240 241 245 246 249 255 263 268 277 280 284 289 293 294 294 292 292 292 292 293 295 295 293 292 291 290 289 288 288 288 288 288 288
223 224 228 230 231 233 236 238 240 242 241 240 240 242 244 249 256 261 268 277 282 285 288 291 293 292 288 288 290 290 292 296 293 292 292 294 291 291 291 289 289 289 289 287
224 225 229 231 232 234 237 239 242 243 242 239 240 241 242 248 255 261 267 275 281 284 287 289 291 293 290 288 289 292 292 295 293 292 292 292 291 294 293 289 287 288 290 290
225 227 230 230 232 235 237 239 241 243 241 239 239 240 243 249 257 262 267 275 281 284 286 286 289 292 292 290 289 290 291 294 296 294 293 294 294 292 293 294 290 287 287 290
227 229 232 232 233 235 238 240 240 240 239 238 237 240 244 249 255 262 268 272 277 283 284 286 288 290 291 292 289 289 290 291 293 295 297 296 297 295 295 295 292 289 289 289
229 231 233 234 235 236 238 239 238 237 236 235 237 242 246 249 252 258 264 269 274 280 285 286 287 289 289 289 291 291 290 290 291 296 300 298 297 298 296 295 295 294 294 294
228 231 233 234 235 235 237 238 237 235 234 236 239 241 245 248 250 253 260 267 271 278 284 285 287 290 290 291 291 293 291 290 291 293 294 295 295 296 296 295 294 294 294 296
229 230 232 234 234 236 237 236 236 235 235 237 240 242 246 248 249 252 257 265 269 275 280 283 285 288 288 289 290 291 292 291 293 291 289 290 292 294 295 297 295 293 293 294
228 229 230 232 234 235 235 236 236 234 234 235 237 241 244 246 247 251 255 260 266 272 276 278 280 281 284 286 289 290 290 289 290 288 287 289 292 293 295 296 296 297 297 296
229 230 231 231 233 234 233 235 236 234 234 236 237 241 243 245 245 249 254 259 264 270 273 273 274 277 281 282 282 286 286 286 287 286 286 287 289 291 293 294 298 298 298 298
230 231 231 231 233 232 232 234 235 235 235 237 239 242 243 246 246 249 254 258 264 267 271 274 273 274 278 281 281 281 284 286 286 287 288 287 289 290 293 295 296 297 297 299
231 231 231 230 231 230 231 233 235 235 235 235 239 241 244 245 246 249 253 257 262 266 269 272 271 272 275 278 279 279 281 283 285 287 287 288 290 290 293 294 295 295 296 298
232 232 230 230 233 233 233 235 236 237 236 236 238 240 242 242 245 248 251 255 259 263 267 269 269 270 272 275 276 277 279 281 283 283 285 286 288 290 293 295 296 297 297 298
232 231 230 231 232 234 235 236 238 238 239 239 239 239 243 247 248 250 250 252 257 260 264 267 267 269 270 271 273 275 276 279 280 281 284 285 287 289 291 294 296 296 297 297
231 230 230 232 233 234 234 236 237 239 239 238 239 242 245 247 251 253 253 255 260 261 261 262 263 266 267 269 271 272 273 276 277 279 282 285 287 289 291 293 295 296 296 298
231 232 232 231 231 234 235 236 237 239 241 241 243 245 245 247 251 252 252 254 259 261 263 262 263 265 265 267 269 270 272 273 276 279 282 285 287 288 289 290 292 295 296 298
229 231 231 231 232 234 236 236 236 237 239 242 245 246 245 247 248 249 251 253 257 260 263 263 264 264 263 264 266 269 270 273 276 279 281 283 285 286 288 290 291 293 296 297
227 229 231 231 232 234 235 237 238 239 242 243 244 247 247 247 248 249 251 254 257 259 261 263 262 261 260 262 265 268 273 275 278 280 281 283 285 285 287 289 291 294 295 295
228 229 232 232 233 234 236 237 237 240 242 243 244 244 243 245 248 250 253 254 255 256 259 260 260 260 261 264 265 268 271 275 277 277 280 283 284 284 287 289 291 292 294 295
227 228 229 230 233 233 234 235 235 237 240 241 241 239 241 245 248 250 250 250 251 255 257 258 260 261 261 264 265 266 269 272 273 274 278 281 283 285 288 289 291 292 294 295
225 226 226 229 230 232 234 235 236 237 238 238 239 240 243 246 248 249 249 250 253 255 257 259 260 262 263 263 264 265 267 269 271 274 278 281 284 286 288 290 291 292 293 295
223 223 225 227 228 231 234 234 235 235 237 240 241 242 243 244 246 249 250 252 253 254 256 257 259 261 261 262 265 265 266 269 273 276 279 282 285 287 289 290 291 292 293 295
221 221 224 226 227 229 231 232 234 235 236 237 239 242 245 246 248 249 251 252 254 253 254 255 258 261 262 263 265 267 269 272 275 278 280 282 285 287 289 291 292 293 294 295
220 222 224 224 225 227 228 231 233 233 234 236 239 242 245 246 248 250 251 252 252 250 253 256 260 263 265 266 267 268 270 273 276 279 282 283 285 289 291 293 293 293 294 295
219 220 222 225 226 228 230 231 232 233 235 237 239 242 244 246 248 249 250 250 251 253 256 260 262 264 265 267 267 269 273 276 279 282 285 286 288 291 292 293 294 294 295 295
218 220 222 223 224 225 226 227 229 231 232 235 237 240 242 244 247 248 247 249 252 255 258 260 261 264 265 267 269 270 274 279 282 283 284 286 288 290 291 293 295 296 297 297
Height
5845 5850 5854 5857 5861 5865 5868 5872 5875 5879 5883 5886 5888 5891 5893 5895 5897 5898 5899 5899 5898 5898 5897 5896 5896 5895 5894 5893 5892 5891 5890 5889 5888 5887 5885 5883 5883 5882 5881 5879 5878 5877 5875 5874
5839 5844 5848 5851 5856 5859 5863 5866 5870 5874 5878 5881 5883 5886 5888 5891 5893 5894 5895 5895 5895 5895 5894 5893 5892 5891 5890 5889 5888 5887 5886 5885 5883 5882 5880 5879 5877 5877 5876 5875 5873 5872 5871 5870
5834 5838 5841 5845 5850 5854 5858 5861 5865 5869 5874 5876 5879 5881 5884 5886 5888 5890 5890 5891 5891 5891 5890 5889 5889 5888 5887 5886 5884 5883 5882 5881 5879 5877 5876 5875 5874 5873 5871 5870 5869 5868 5867 5866
5829 5833 5836 5843 5845 5849 5852 5856 5860 5864 5868 5871 5874 5876 5879 5881 5883 5885 5886 5887 5887 5886 5886 5885 5884 5883 5882 5882 5880 5879 5878 5877 5875 5873 5872 5871 5870 5869 5867 5866 5865 5864 5863 5862
5823 5826 5831 5836 5840 5843 5847 5851 5855 5858 5862 5865 5868 5871 5874 5877 5879 5881 5882 5882 5882 5882 5881 5880 5880 5879 5878 5877 5876 5876 5875 5874 5872 5870 5868 5867 5866 5865 5864 5862 5861 5860 5859 5858
5817 5821 5825 5832 5835 5838 5843 5846 5850 5853 5857 5860 5863 5867 5870 5872 5874 5876 5877 5877 5878 5878 5877 5876 5876 5875 5874 5873 5873 5872 5871 5870 5869 5867 5866 5864 5863 5861 5860 5859 5857 5856 5855 5854
5811 5815 5820 5826 5829 5834 5838 5842 5845 5848 5852 5855 5858 5862 5865 5867 5869 5870 5871 5872 5873 5874 5873 5873 5872 5871 5871 5870 5869 5868 5867 5866 5865 5864 5862 5860 5859 5858 5857 5856 5855 5853 5852 5851
5806 5810 5817 5820 5824 5828 5832 5836 5840 5843 5847 5850 5853 5856 5858 5861 5863 5865 5866 5868 5869 5869 5869 5868 5868 5868 5867 5866 5865 5864 5863 5862 5861 5860 5859 5857 5856 5855 5854 5853 5851 5850 5849 5848
5802 5807 5810 5814 5818 5822 5826 5830 5834 5837 5841 5844 5847 5850 5852 5855 5857 5859 5861 5862 5863 5864 5864 5864 5864 5864 5863 5862 5861 5860 5859 5858 5857 5856 5855 5854 5853 5852 5851 5849 5848 5846 5845 5844
5796 5800 5804 5809 5813 5816 5820 5824 5828 5831 5835 5838 5841 5844 5847 5849 5852 5854 5856 5857 5858 5858 5859 5859 5859 5859 5859 5858 5857 5856 5855 5854 5853 5852 5851 5850 5849 5848 5847 5846 5844 5843 5841 5840
5789 5794 5799 5803 5807 5811 5815 5818 5822 5826 5829 5833 5836 5838 5841 5843 5846 5848 5850 5851 5852 5853 5853 5853 5854 5854 5854 5853 5853 5852 5851 5850 5849 5848 5847 5846 5845 5844 5843 5842 5840 5839 5837 5836
5784 5789 5793 5797 5801 5805 5809 5813 5816 5820 5823 5827 5830 5832 5835 5838 5840 5842 5844 5846 5847 5848 5848 5848 5848 5849 5849 5848 5848 5847 5847 5846 5845 5844 5843 5842 5841 5840 5839 5838 5836 5835 5833 5831
5777 5782 5786 5791 5795 5799 5803 5807 5810 5814 5817 5821 5824 5826 5829 5832 5834 5836 5839 5840 5842 5843 5843 5843 5844 5844 5844 5844 5843 5843 5842 5841 5840 5840 5839 5838 5837 5836 5835 5833 5832 5830 5828 5826
5771 5776 5781 5785 5790 5793 5797 5801 5805 5808 5812 5815 5818 5820 5823 5826 5828 5830 5833 5834 5836 5837 5837 5838 5838 5839 5839 5838 5838 5838 5837 5837 5836 5835 5834 5833 5832 5831 5830 5828 5827 5825 5823 5821
5765 5770 5775 5779 5783 5788 5791 5795 5799 5802 5805 5808 5811 5814 5817 5820 5822 5824 5826 5828 5829 5830 5831 5831 5832 5833 5833 5833 5833 5833 5832 5832 5831 5830 5829 5828 5827 5826 5824 5823 5821 5819 5817 5815
5759 5763 5768 5773 5777 5781 5785 5789 5792 5796 5799 5802 5805 5809 5811 5814 5816 5818 5820 5822 5822 5823 5823 5824 5826 5827 5827 5827 5827 5827 5827 5826 5826 5825 5824 5823 5822 5821 5819 5817 5816 5814 5812 5810
5752 5757 5762 5766 5771 5775 5779 5783 5786 5790 5793 5796 5799 5802 5805 5807 5809 5812 5813 5815 5816 5817 5817 5818 5819 5820 5820 5821 5821 5821 5821 5820 5820 5819 5818 5817 5816 5815 5813 5811 5810 5808 5806 5803
5746 5751 5755 5760 5764 5768 5772 5776 5780 5783 5786 5790 5793 5795 5797 5800 5802 5804 5806 5808 5809 5810 5811 5812 5812 5813 5814 5814 5815 5815 5814 5814 5814 5813 5811 5810 5809 5808 5807 5805 5803 5801 5799 5797
5740 5744 5749 5753 5758 5762 5766 5770 5773 5776 5779 5782 5785 5788 5791 5793 5796 5797 5799 5801 5802 5804 5805 5805 5806 5806 5807 5807 5808 5808 5808 5807 5807 5805 5804 5803 5802 5801 5800 5798 5797 5795 5793 5790
5734 5738 5743 5747 5751 5756 5760 5763 5767 5770 5773 5775 5779 5781 5784 5786 5788 5790 5792 5794 5795 5797 5798 5799 5799 5800 5800 5801 5801 5801 5801 5800 5800 5799 5798 5797 5796 5795 5793 5791 5790 5788 5785 5783
5728 5733 5737 5742 5746 5750 5754 5757 5760 5764 5766 5769 5772 5775 5778 5780 5782 5783 5785 5787 5789 5790 5791 5792 5793 5793 5794 5794 5794 5794 5794 5794 5793 5792 5791 5790 5789 5787 5786 5784 5782 5780 5778 5776
5723 5728 5733 5737 5741 5744 5748 5752 5755 5758 5761 5763 5766 5769 5772 5774 5776 5778 5779 5781 5782 5783 5784 5785 5786 5786 5787 5787 5787 5787 5787 5787 5786 5785 5784 5783 5782 5780 5778 5777 5775 5773 5770 5768
5719 5724 5728 5732 5736 5739 5743 5746 5750 5753 5756 5758 5761 5763 5766 5768 5769 5771 5773 5774 5775 5776 5778 5779 5779 5780 5780 5780 5780 5780 5780 5780 5779 5778 5777 5775 5774 5773 5771 5769 5767 5765 5762 5760
5715 5719 5723 5727 5731 5734 5738 5741 5744 5747 5750 5753 5755 5757 5760 5762 5763 5765 5767 5768 5769 5770 5771 5772 5773 5773 5773 5774 5774 5773 5773 5773 5772 5771 5769 5768 5767 5765 5763 5761 5759 5756 5754 5752
5710 5714 5718 5722 5725 5729 5732 5735 5738 5741 5744 5747 5749 5752 5754 5756 5758 5759 5760 5761 5762 5763 5765 5766 5766 5766 5767 5767 5767 5766 5766 5765 5764 5763 5762 5760 5759 5757 5755 5753 5751 5748 5746 5744
5705 5709 5712 5716 5720 5723 5726 5730 5733 5735 5738 5741 5743 5745 5748 5749 5751 5753 5754 5755 5756 5757 5758 5759 5759 5760 5760 5760 5760 5759 5759 5758 5757 5756 5754 5753 5751 5750 5748 5745 5743 5740 5738 5735
5700 5704 5708 5711 5715 5718 5721 5724 5727 5730 5732 5735 5737 5740 5742 5744 5745 5747 5748 5749 5750 5751 5752 5752 5753 5753 5753 5753 5753 5752 5751 5750 5749 5748 5747 5746 5744 5742 5740 5737 5735 5732 5730 5727